User: anonymous   Login
Location: Unspecified
(0.0000°N, 0.0000°E)
Time: 22:13:59
(UTC+00:00)
Language:

Vela 4A - Orbit

View from above orbital plane
View from above orbital plane
View from above satellite
View from above satellite

Ground track
Ground track

The orbit data is extracted from the following two-line orbital elements,

1 02765U 67040A   15114.20590622 -.00001437  00000-0  00000+0 0  9990
2 02765 005.4059 340.5101 4630086 201.0825 000.9669 00.21513759 37658
Epoch (UTC): 24 April 2015 04:56:30
Eccentricity: 0.4630086
inclination: 5.4059°
perigee height: 56798 km
apogee height: 165742 km
right ascension of ascending node: 340.5101°
argument of perigee: 201.0825°
revolutions per day: 0.21513759
mean anomaly at epoch: 0.9669°
orbit number at epoch: 3765

The dashed part of the orbit path shows where the satellite is in the earth's shadow,  

DLR